Flag for U.S.A. Weather past 2 weeks in Mansfield, Texas, U.S.A.

Now
66 °F

Clear.


Feels Like: 66 °F
Forecast: 58 / 82 °F
Wind: 3 mph from Southeast

Location: Burleson-Rendon

Current Time: Oct 20, 2014 at 9:55:09 PM

Latest Report: Oct 20, 2014 at 9:15 PM


Visibility: 10 mi

Pressure: 30.06 "Hg

Humidity: 75%

Dew point: 58 °F

Location of MansfieldLocation

Historic Weather in Mansfield — Graph

°F

Mansfield temperature yesterday

Maximum temperature yesterday: 79 °F (at 3:50 PM)
Minimum temperature yesterday: 58 °F (at 4:15 AM)
Average temperature yesterday: 65 °F

Past Weeks' High & Low Weather Summary

 TemperatureHumidityPressure
High99 °F (Oct 7, 3:46 PM)100% (Oct 12, 6:50 AM)30.18 "Hg (Oct 12, 6:50 AM)
Low45 °F (Oct 15, 6:55 AM)17% (Oct 16, 2:53 PM)29.61 "Hg (Oct 13, 1:35 AM)
Average69 °F68%29.96 "Hg
* Reported Oct 5 8:15 PM — Oct 20 8:55 PM, Mansfield, Weather by CustomWeather, © 2014

Note: Actual official high and low records may vary slightly from our data, if they occured in-between our weather recording intervals... More about our weather records

Advertising

Mansfield weather history for previous 24 hours

 ConditionsComfort  
Time TempWeatherWind HumidityBarometerVisibility
8:55 PM
Oct 20
66 °FClear.3 mph74%30.05 "Hg10 mi
8:35 PM68 °FClear.No wind70%30.05 "Hg10 mi
8:15 PM70 °FClear.No wind67%30.04 "Hg10 mi
7:55 PM70 °FClear.3 mph66%30.04 "Hg10 mi
7:35 PM70 °FSunny.No wind66%30.03 "Hg10 mi
7:15 PM73 °FSunny.3 mph59%30.03 "Hg10 mi
6:48 PM75 °FSunny.7 mph54%30.02 "Hg10 mi
5:49 PM81 °FPassing clouds.3 mph45%30.02 "Hg10 mi
4:50 PM81 °FScattered clouds.5 mph45%30.02 "Hg10 mi
3:47 PM82 °FScattered clouds.No wind42%30.03 "Hg10 mi
2:47 PM82 °FScattered clouds.No wind42%30.04 "Hg7 mi
1:47 PM81 °FScattered clouds.No wind51%30.06 "Hg7 mi
12:47 PM77 °FScattered clouds.5 mph57%30.10 "Hg7 mi
11:57 AM77 °FPassing clouds.8 mph61%30.11 "Hg7 mi
10:46 AM73 °FSunny.7 mph65%30.12 "Hg7 mi
9:51 AM66 °FSunny.7 mph78%30.13 "Hg7 mi
8:49 AM59 °FSunny.No wind94%30.11 "Hg7 mi
7:50 AM55 °FClear.No wind94%30.10 "Hg7 mi
6:52 AM57 °FClear.No wind94%30.09 "Hg10 mi
6:35 AM58 °FClear.No wind93%30.09 "Hg10 mi
6:15 AM58 °FClear.No wind92%30.08 "Hg10 mi
5:55 AM57 °FClear.No wind94%30.07 "Hg10 mi
5:15 AM58 °FClear.No wind91%30.06 "Hg10 mi
4:55 AM58 °FClear.3 mph92%30.07 "Hg10 mi
4:35 AM57 °FClear.3 mph91%30.06 "Hg10 mi
4:15 AM59 °FClear.3 mph88%30.06 "Hg10 mi
3:55 AM61 °FClear.No wind85%30.06 "Hg10 mi
3:35 AM61 °FClear.No wind85%30.06 "Hg10 mi
3:15 AM61 °FClear.No wind84%30.06 "Hg10 mi
2:55 AM61 °FClear.5 mph83%30.06 "Hg10 mi
2:35 AM61 °FClear.5 mph83%30.06 "Hg10 mi
2:15 AM62 °FClear.5 mph81%30.06 "Hg10 mi
1:55 AM61 °FClear.5 mph83%30.06 "Hg10 mi
1:35 AM60 °FClear.No wind86%30.06 "Hg10 mi
1:15 AM60 °FClear.3 mph85%30.06 "Hg10 mi
12:55 AM61 °FClear.No wind81%30.06 "Hg10 mi
12:35 AM62 °FClear.No wind81%30.06 "Hg10 mi
10:15 PM
Oct 19
63 °FClear.No wind78%30.08 "Hg10 mi
9:55 PM64 °FClear.3 mph75%30.08 "Hg10 mi
9:35 PM65 °FClear.3 mph74%30.08 "Hg10 mi
9:15 PM66 °FClear.5 mph72%30.08 "Hg10 mi
Weather by CustomWeather, © 2014

See weather overviewHow to use our weather pages